Lexington Weather

Lexington, Massachusetts, USA

46°F
10/22/2019 1:58am 
  • Lexington Conditions: Partly cloudy
  • Temperature: 46.0°F / 7.8°CWarmer 0.5°F than last hour.
  • Dew Point: 44.4°FIncreased 1.4°Fsince last hour.
  • Relative Humidity: 94%Increased 3.0% since last hour.
  • Wind: Calm, 10-min avg: Calm, gust: None
  • Barometer: 30.12 in Steady
  • Visibility: 9 miles
  • Rain Today: 0.00 in
  •   

Regional Weather Roundup
for Boston, MA

        
000
ASUS41 KBOX 200600
RWRBOX

REGIONAL WEATHER ROUNDUP
NATIONAL WEATHER SERVICE BOSTON/NORTON MA
200 AM EDT SUN OCT 20 2019

NOTE:  "FAIR" INDICATES FEW OR NO CLOUDS BELOW 12,000 FEET WITH NO 
SIGNIFICANT WEATHER AND/OR OBSTRUCTIONS TO VISIBILITY.

MAZALL-200700-
EASTERN MASSACHUSETTS
  
CITY           SKY/WX    TMP DP  RH WIND       PRES   REMARKS
BOSTON         FAIR      49  36  61 N7        30.06S                  
6HR MIN TEMP:  48; 6HR MAX TEMP:  56;                                

BEVERLY        FAIR      35  32  88 NW3       30.05S                  
LAWRENCE       FAIR      37  35  92 CALM      30.08S                  
BEDFORD        FAIR      37  31  78 CALM      30.05S                  
BLUE HILL      NOT AVBL                                               
NORWOOD        FAIR      35  31  85 CALM      30.06S                  
MARSHFIELD     NOT AVBL                                               
PLYMOUTH       FAIR      36  35  96 CALM      30.05S                  
TAUNTON        FAIR      33  30  88 CALM      30.05S FOG              
NEW BEDFORD    FAIR      36  34  92 CALM      30.05R                  
$$

MAZALL-200700-
CAPE COD AND THE ISLANDS
  
CITY           SKY/WX    TMP DP  RH WIND       PRES   REMARKS
FALMOUTH       NOT AVBL                                               
HYANNIS        NOT AVBL                                               
CHATHAM        NOT AVBL                                               
PROVINCETOWN   FAIR      36  35  96 CALM        N/A                   
NANTUCKET      FAIR      41  38  89 CALM      30.06S                  
MARTHAS VNYRD  FOG       32  31  96 CALM      30.06R VSB 3/4          
$$
 
MAZALL-200700-
CENTRAL AND WESTERN MASSACHUSETTS
  
CITY           SKY/WX    TMP DP  RH WIND       PRES   REMARKS
WORCESTER      FAIR      47  32  56 N6        30.05R                  
6HR MIN TEMP:  42; 6HR MAX TEMP:  49;                                

FITCHBURG      FAIR      35  32  88 NW5       30.07S WCI  31          
ORANGE         FAIR      33  30  88 CALM      30.06S                  
SPRINGFIELD    FAIR      33  31  96 CALM      30.05S                  
WESTFIELD      FAIR      35  32  88 CALM      30.06R                  
NORTH ADAMS    FAIR      31  29  92 CALM      30.06S                  
PITTSFIELD     FAIR      33  30  88 CALM      30.03R                  
$$
 
RIZALL-200700-
RHODE ISLAND
  
CITY           SKY/WX    TMP DP  RH WIND       PRES   REMARKS
PROVIDENCE     FAIR      41  40  96 SW5       30.06S                  
6HR MIN TEMP:  39; 6HR MAX TEMP:  49;                                

NEWPORT        FAIR      42  38  85 CALM      30.05R                  
BLOCK ISLAND   FAIR      48  44  86 W5        30.06S                  
SMITHFIELD     FAIR     N/A N/A N/A CALM      30.05R                  
WESTERLY       FAIR      40  38  93 CALM      30.06S                  
$$
 
CTZALL-200700-
CONNECTICUT
  
CITY           SKY/WX    TMP DP  RH WIND       PRES   REMARKS
BRADLEY INTL   FAIR      38  34  85 NW3       30.06R                  
6HR MIN TEMP:  37; 6HR MAX TEMP:  52;                                

HARTFORD       FAIR      39  37  92 CALM      30.06S                  
BRIDGEPORT     FAIR      45  42  89 N3        30.05S                  
DANBURY        FAIR      36  35  96 CALM      30.05S                  
GROTON         NOT AVBL                                               
NEW HAVEN      FAIR      44  41  89 CALM      30.06S                  
CHESTER        FAIR      43  41  93 CALM      30.05S                  
MERIDEN        FAIR      38  36  92 W3        30.06S                  
WILLIMANTIC    FAIR      35  33  92 CALM      30.08S                  
OXFORD         FAIR      38  37  97 NE3       30.05S                  
$$

MEZ002-015-021-024-NHZ003-005-008-011-012-014-VTZ005-008-200700-
NORTHERN NEW ENGLAND
  
CITY           SKY/WX    TMP DP  RH WIND       PRES   REMARKS
PORTLAND ME    FAIR      35  31  85 W5        30.07R WCI  31          
6HR MIN TEMP:  34; 6HR MAX TEMP:  46;                                

BANGOR ME      FAIR      36  32  85 CALM      30.05R                  
CONCORD NH     FAIR      32  30  92 CALM      30.07S                  
MANCHESTER NH  FAIR      39  35  86 CALM      30.05F                  
NASHUA NH      FAIR      35  35 100 NW3       30.07S                  
PORTSMOUTH NH  MOCLDY    38  36  92 CALM      30.05R                  
JAFFREY NH     FAIR      32  29  88 CALM      30.05S                  
KEENE NH       FAIR      30  29  96 CALM      30.07S                  
BURLINGTON VT  FAIR      36  33  89 CALM      30.04F                  
MT. WASHINGTON NOT AVBL                                               
$$

NYZ052-076-200700-
EASTERN NEW YORK
  
CITY           SKY/WX    TMP DP  RH WIND       PRES   REMARKS
ALBANY         FAIR      38  35  89 CALM      30.05R FOG              
6HR MIN TEMP:  38; 6HR MAX TEMP:  46;                                

NEW YORK CITY  MOCLDY    55  41  59 S8        30.04S                  
6HR MIN TEMP:  54; 6HR MAX TEMP:  58;                                

$$
 
ANZALL-200700-
MARINE OBSERVATIONS
  
STATION/POSITION TIME  TEMP    WIND        PRES    VSBY  WAVE
                       AIR SEA DIR/SP/G                  HT/PER
                 (UTC) (F)     (DEG/KT/KT) (MB)    (MI)  (FT/S)
BOSTON BUOY      0450   54 56  360/  8/ 10 1016.6          1/ 9
BUZZARDS BAY     0500   56     270/  6/  7 1018.1R
NANTUCKET SOUND  NOT AVBL
MASS BAY-STELLWA NOT AVBL
ISLE OF SHOALS   0500   53      60/  8/  9 1017.2R
S OF BLOCK IS    0530      60                N/A           2/ 5
$$

......................KEY.........................
  SKY/WX - SKY CONDITION/PRESENT WEATHER
  TMP    - TEMPERATURE IN FAHRENHEIT
  DWPT   - DEWPOINT IN FAHRENHEIT
  RH     - RELATIVE HUMIDITY IN PERCENT
  WIND   - DIRECTION AND SPEED IN MPH
  PRES   - MEAN SEA LEVEL PRESSURE IN INCHES OF HG
  WCI    - WIND CHILL INDEX
  VSB    - VISIBILITY IN MILES
  HX     - HEAT INDEX
  TC     - TEMPERATURE IN CELSIUS
  VRB    - VARIABLE WIND DIRECTION
  N/A    - NOT AVAILABLE
  
      

Other recent Regional Weather Roundups

Tue Oct 22, 1:10am

Tue Oct 22, 1:00am

Tue Oct 22, 12:10am

Tue Oct 22, 12:00am

Mon Oct 21, 11:10pm

Mon Oct 21, 11:00pm

Mon Oct 21, 10:10pm

Mon Oct 21, 10:01pm

Mon Oct 21, 9:10pm

Mon Oct 21, 9:00pm

Mon Oct 21, 8:10pm

Mon Oct 21, 8:00pm

Mon Oct 21, 7:10pm

Mon Oct 21, 7:01pm

Mon Oct 21, 6:10pm

Mon Oct 21, 6:01pm

Mon Oct 21, 5:10pm

Mon Oct 21, 5:01pm

Mon Oct 21, 4:10pm

Mon Oct 21, 4:00pm

Mon Oct 21, 3:10pm

Mon Oct 21, 3:01pm

Mon Oct 21, 2:10pm

Mon Oct 21, 2:00pm

Mon Oct 21, 1:10pm

Mon Oct 21, 1:01pm

Mon Oct 21, 12:10pm

Mon Oct 21, 12:00pm

Mon Oct 21, 11:10am

Mon Oct 21, 11:00am

Mon Oct 21, 10:10am

Mon Oct 21, 10:00am

Mon Oct 21, 9:10am

Mon Oct 21, 9:00am

Mon Oct 21, 7:10am

Mon Oct 21, 7:00am

Mon Oct 21, 6:10am

Mon Oct 21, 6:00am

Mon Oct 21, 5:10am

Mon Oct 21, 5:00am

Mon Oct 21, 4:10am

Mon Oct 21, 4:00am

Mon Oct 21, 3:10am

Mon Oct 21, 3:00am

Mon Oct 21, 2:10am

Mon Oct 21, 2:01am

Mon Oct 21, 1:10am

Mon Oct 21, 1:00am

Mon Oct 21, 12:10am

Mon Oct 21, 12:00am

Sun Oct 20, 11:10pm

Sun Oct 20, 11:00pm

Sun Oct 20, 10:10pm

Sun Oct 20, 10:00pm

Sun Oct 20, 9:10pm

Sun Oct 20, 9:01pm

Sun Oct 20, 8:10pm

Sun Oct 20, 8:00pm

Sun Oct 20, 7:10pm

Sun Oct 20, 7:01pm

Sun Oct 20, 6:10pm

Sun Oct 20, 6:00pm

Sun Oct 20, 5:10pm

Sun Oct 20, 5:00pm

Sun Oct 20, 4:10pm

Sun Oct 20, 4:00pm

Sun Oct 20, 3:10pm

Sun Oct 20, 3:00pm

Sun Oct 20, 2:10pm

Sun Oct 20, 2:01pm

Sun Oct 20, 1:10pm

Sun Oct 20, 1:01pm

Sun Oct 20, 12:10pm

Sun Oct 20, 12:00pm

Sun Oct 20, 11:10am

Sun Oct 20, 11:00am

Sun Oct 20, 10:10am

Sun Oct 20, 10:00am

Sun Oct 20, 9:10am

Sun Oct 20, 9:00am

Sun Oct 20, 8:10am

Sun Oct 20, 8:00am

Sun Oct 20, 7:10am

Sun Oct 20, 7:00am

Sun Oct 20, 6:10am

Sun Oct 20, 6:00am

Sun Oct 20, 5:10am

Sun Oct 20, 5:00am

Sun Oct 20, 4:10am

Sun Oct 20, 4:00am

Sun Oct 20, 3:10am

Sun Oct 20, 3:00am

Sun Oct 20, 2:10am

Sun Oct 20, 1:10am

Sun Oct 20, 1:00am

Sun Oct 20, 12:10am

Sun Oct 20, 12:00am

Sat Oct 19, 11:10pm

Sat Oct 19, 11:00pm

Sat Oct 19, 10:10pm

Sat Oct 19, 10:00pm

Sat Oct 19, 9:10pm

Sat Oct 19, 9:00pm

Sat Oct 19, 8:10pm

Sat Oct 19, 8:00pm

Sat Oct 19, 7:10pm

Sat Oct 19, 7:00pm

Sat Oct 19, 6:10pm

Sat Oct 19, 6:00pm

Sat Oct 19, 5:10pm

Sat Oct 19, 5:00pm

Sat Oct 19, 4:10pm

Sat Oct 19, 4:00pm

Sat Oct 19, 3:10pm

Sat Oct 19, 3:01pm

Sat Oct 19, 2:10pm

Sat Oct 19, 2:00pm

Sat Oct 19, 1:10pm

Sat Oct 19, 1:01pm

Sat Oct 19, 12:10pm

Sat Oct 19, 12:00pm

Sat Oct 19, 11:10am

Sat Oct 19, 11:01am

Sat Oct 19, 10:10am

Sat Oct 19, 10:00am

Sat Oct 19, 9:10am

Sat Oct 19, 9:00am

Sat Oct 19, 8:10am

Sat Oct 19, 8:00am

Sat Oct 19, 7:10am

Sat Oct 19, 7:00am

Sat Oct 19, 6:10am

Sat Oct 19, 6:00am

Sat Oct 19, 5:10am

Sat Oct 19, 5:00am

Sat Oct 19, 4:10am

Sat Oct 19, 4:00am

Sat Oct 19, 3:10am

Sat Oct 19, 3:00am

Sat Oct 19, 2:10am

Sat Oct 19, 2:00am

Meta data:

ID: 6a237df2-83e8-4357-8483-af23636d7d92
Link: https://api.weather.gov/products/6a237df2-83e8-4357-8483-af23636d7d92